Orbital Elements at Epoch 2459200.5 (2020-Dec-17.0) TDB
Reference: JPL 19 (heliocentric ecliptic J2000)
Element | Value | Uncertainty (1-sigma) | Units |
e | .03518395792817615 | 3.9574e-08 | |
a | 2.655478651461488 | 1.8243e-08 | au |
q | 2.562048402309297 | 1.1148e-07 | au |
i | 1.536148387033199 | 4.9226e-06 | deg |
node | 8.288687741190733 | 0.00016642 | deg |
peri | 239.5467912645858 | 0.00018518 | deg |
M | 328.9337932362989 | 8.3257e-05 | deg |
tp | 2459336.894976695093 (2021-May-02.39497670) | 0.00036575 | TDB |
period | 1580.566046692457 4.33 | 1.6288e-05 4.459e-08 | d yr |
n | .2277665022308606 | 2.3471e-09 | deg/d |
Q | 2.748908900613678 | 1.8885e-08 | au |
|
| | Orbit Determination Parameters
Additional Information
|